Wetbulb
45.34 45.08 44.94 44.82 44.32 44.32 43.74 43.81 43.08 43.23 42.97 42.51 42.22 41.85 39.95 38.92 38.53 38.52 38.16 38.16 38.04 38.03 37.63 37.41 37.72 37.09 36.42 36.32 37.07 36.92 36.16 37.06 38.79 37.91 38.10 41.58 45.64 46.87 46.66 48.49 49.92 51.17 52.02
42.44 42.97 43.25 43.36 43.53 43.18 43.27 42.81 42.59 42.32 42.51 42.37 41.87 41.78 39.84 38.35 37.71 37.76 37.18 37.46 37.13 37.35 36.60 36.26 35.93 35.39 35.55 35.91 35.87 35.24 34.27 35.54 36.56 33.73 34.71 35.67 41.82 43.44 42.74 44.83 46.19 47.56 52.33
41.90 42.24 41.91 42.06 43.24 42.40 42.11 42.19 42.12 41.45 40.73 40.27 39.79 38.72 38.43 37.93 37.99 36.58 36.27 36.12 36.56 36.73 36.42 35.94 35.11 35.09 35.40 33.79 34.18 34.63 34.06 32.43 35.03 35.88 33.66 31.93 32.87 34.72 43.09 43.27 43.22 45.20 45.42
43.28 42.95 42.18 41.78 42.05 42.64 42.33 42.51 41.19 40.20 38.83 38.91 38.44 37.90 37.61 36.50 36.11 36.40 36.02 36.61 35.93 36.25 35.68 35.45 35.31 35.15 35.15 34.08 33.39 34.27 33.68 33.10 31.58 34.13 36.30 35.51 35.23 33.44 33.63 41.79 41.14 42.84 44.18
43.64 42.93 42.38 42.67 42.63 42.34 41.85 41.24 39.63 38.43 37.60 37.23 37.78 36.85 35.10 35.05 35.19 35.63 33.94 34.54 35.68 35.65 34.74 34.71 34.67 34.41 34.13 33.01 33.62 32.91 32.39 32.39 31.66 31.69 32.04 33.13 34.36 35.96 35.35 34.46 37.63 41.01 44.72
43.23 43.53 43.50 43.14 41.66 41.48 40.25 39.44 38.23 36.83 36.93 36.63 35.88 35.37 34.68 33.73 34.15 33.38 33.50 33.60 34.81 34.44 33.18 33.11 33.41 33.61 33.20 32.13 32.74 32.42 31.97 31.54 31.15 31.25 31.90 31.63 32.12 33.05 35.00 33.99 35.32 37.02 41.42
42.41 42.19 41.41 40.10 39.50 38.39 38.51 38.16 37.56 36.17 36.32 35.49 34.21 34.02 34.00 33.68 32.67 32.14 32.36 31.54 32.72 32.42 31.31 31.56 31.66 32.10 32.09 32.16 31.74 31.57 31.77 30.88 29.47 29.64 30.38 31.52 32.21 34.80 34.77 35.70 35.51 36.70 40.53
42.48 42.05 41.02 41.03 39.15 38.12 37.89 38.46 36.92 35.48 34.93 33.71 33.08 33.24 33.67 33.26 32.43 31.83 32.08 31.87 31.54 31.47 30.38 30.21 30.50 30.87 31.19 31.69 32.04 32.16 31.95 31.57 30.22 30.06 30.91 31.28 32.32 34.03 34.62 34.97 35.99 35.99 38.66
42.65 42.42 42.20 41.23 39.77 38.28 38.10 38.34 36.70 35.48 34.19 33.01 32.36 32.54 32.67 32.16 31.32 30.90 31.21 31.57 30.83 30.43 29.97 29.67 28.98 29.80 30.20 30.36 31.00 31.33 30.45 31.46 30.67 29.98 31.14 31.34 31.78 33.51 34.45 35.87 36.27 35.92 35.28
42.17 41.89 41.84 41.03 40.31 39.00 38.45 37.77 36.71 34.78 33.38 32.54 32.40 32.23 32.26 31.86 30.89 30.86 29.44 29.68 29.97 29.53 29.07 28.70 28.30 28.31 28.94 29.25 29.61 30.48 29.69 30.03 30.56 29.70 29.70 30.76 31.02 32.12 33.63 34.80 36.74 37.42 37.07
40.70 41.19 41.04 40.31 39.40 38.74 36.77 35.64 34.32 32.88 32.19 32.11 31.65 31.32 31.31 30.50 30.18 29.31 29.02 28.75 29.53 29.35 28.47 27.92 27.33 26.80 27.14 27.78 27.90 28.24 27.46 27.94 28.67 29.04 28.97 29.53 30.41 30.31 31.77 33.92 34.22 34.84 36.06
40.86 40.31 37.45 37.40 35.60 33.84 33.95 32.78 33.31 32.63 31.99 31.48 30.88 31.00 30.66 29.36 28.61 27.71 27.94 28.71 28.90 29.55 28.29 27.92 27.08 26.46 26.26 27.05 26.43 26.08 26.17 26.09 25.99 26.84 27.36 27.88 30.26 29.37 30.27 31.65 30.76 31.38 33.76
39.19 38.77 36.32 33.60 32.76 32.58 31.64 32.23 31.55 31.24 30.80 30.53 30.69 29.86 28.97 27.71 26.44 26.35 27.70 28.57 28.76 29.07 29.00 27.83 27.10 26.53 26.00 25.76 26.31 25.72 25.38 25.45 25.42 25.92 25.75 26.53 28.29 28.16 28.43 28.75 29.17 29.20 31.11
36.84 36.88 36.50 35.44 33.57 32.43 30.87 30.44 30.65 29.87 29.66 29.17 28.74 27.60 27.25 25.51 25.35 26.71 27.46 28.25 28.74 28.68 28.77 28.15 27.65 27.31 26.80 25.65 25.31 24.95 25.07 24.79 24.80 25.17 25.59 25.38 26.26 27.20 27.35 27.22 26.67 27.82 27.68
36.22 36.41 35.98 34.64 33.19 32.00 30.79 29.92 29.87 28.27 28.54 26.64 26.23 24.92 25.78 25.51 25.85 26.30 27.25 27.92 28.22 27.89 27.90 27.66 27.82 28.48 27.53 26.60 24.79 24.69 24.24 24.33 24.07 24.46 25.01 24.88 25.64 26.31 27.21 26.06 25.60 25.29 24.64
37.00 35.93 35.13 33.86 32.66 31.37 30.24 29.95 28.93 26.70 26.94 24.83 23.68 24.18 25.49 24.82 24.58 25.98 26.69 26.77 26.33 25.15 25.42 26.11 26.29 26.95 27.46 25.80 24.76 23.97 23.66 23.16 23.06 23.04 23.93 24.26 23.59 23.43 23.91 24.92 25.14 24.28 23.30
38.78 36.70 35.47 34.73 33.94 32.43 31.18 29.82 28.42 27.47 26.25 23.65 22.41 23.12 22.81 21.70 23.02 24.80 24.28 22.94 23.22 24.85 24.11 24.56 25.57 25.76 27.01 25.58 24.67 23.50 23.81 22.87 21.95 21.65 22.65 22.66 22.36 22.35 22.39 21.15 21.40 23.22 23.01
40.68 39.91 37.86 35.63 34.05 32.92 31.21 29.98 28.13 26.76 26.34 25.75 23.47 21.82 19.83 19.10 20.39 20.28 20.37 22.30 24.45 24.26 24.70 24.38 25.29 26.45 26.67 25.18 23.98 23.25 23.92 23.43 22.91 22.43 21.55 21.62 20.80 20.53 19.15 18.88 17.16 17.19 20.68
40.85 39.24 37.12 35.29 34.06 31.56 30.92 29.42 27.84 27.58 26.80 25.70 25.57 23.57 19.96 18.69 18.77 18.95 20.92 22.88 23.89 23.89 23.71 24.97 24.84 25.27 25.86 24.82 23.74 23.75 23.80 23.00 22.64 24.16 23.03 22.07 20.72 20.33 19.48 15.67 14.41 14.95 15.52
37.10 35.63 34.69 33.40 31.58 30.91 30.71 28.34 27.30 26.56 25.89 26.42 26.64 25.58 24.65 23.00 21.31 21.76 21.75 23.10 24.20 23.70 24.96 24.24 24.50 24.71 25.49 24.72 23.46 23.84 24.03 22.08 22.44 23.08 23.56 22.58 21.56 20.69 18.84 16.97 15.60 12.42 13.02
31.98 32.44 30.73 29.32 28.12 28.08 28.78 25.10 24.48 24.21 25.98 27.24 27.33 26.32 26.05 25.06 24.44 23.84 24.67 24.29 24.16 24.10 23.42 23.48 23.86 24.51 26.04 26.27 23.75 22.36 23.27 21.89 21.00 21.57 22.21 22.83 21.31 20.25 19.39 18.38 15.96 13.89 15.30
31.33 30.63 28.51 26.79 26.40 26.75 26.42 23.54 22.86 24.00 25.16 25.80 25.88 25.92 26.15 26.89 26.23 24.63 25.06 24.55 24.06 22.58 22.21 22.68 23.00 24.77 26.06 26.15 24.95 23.27 21.72 21.12 20.31 19.39 20.62 20.65 20.19 19.85 18.36 17.41 16.45 15.27 15.48
31.09 30.46 27.80 25.48 25.70 26.18 26.15 23.66 22.99 22.90 23.64 24.44 24.51 25.66 26.94 27.93 27.18 25.25 24.42 25.10 24.62 24.59 22.43 21.98 22.14 22.97 24.80 26.19 24.05 23.14 21.32 19.93 20.19 20.23 18.06 16.84 16.09 15.49 16.63 15.78 15.07 14.50 15.97
30.09 29.04 27.15 25.41 24.52 25.38 26.25 26.35 22.42 23.08 23.21 23.68 24.31 25.23 25.64 26.93 27.25 27.64 26.71 26.00 24.72 24.37 24.19 22.10 21.39 22.28 22.83 23.37 23.66 22.80 21.40 17.67 17.04 15.20 15.15 14.55 13.98 11.93 13.02 14.92 15.39 14.87 13.89
29.72 29.84 29.88 28.36 26.19 26.38 25.06 24.42 24.01 24.56 24.69 24.30 24.47 25.68 26.49 26.54 26.43 27.70 27.59 26.85 27.68 26.65 25.15 23.48 22.43 21.67 21.13 21.54 20.20 19.31 18.60 18.05 15.61 15.14 15.60 14.84 14.28 13.91 14.11 13.97 12.90 13.61 13.40
29.71 29.79 30.09 29.81 27.63 27.80 26.99 26.66 26.79 26.62 25.92 24.57 25.36 26.12 26.44 26.19 26.55 25.87 25.34 24.70 25.44 25.17 23.85 21.98 22.83 22.98 22.48 21.35 20.67 19.66 18.47 16.37 14.56 14.82 12.85 11.39 12.00 11.90 12.20 11.98 11.73 11.61 10.16
MSLP
1017.20 1018.44 1019.28 1019.78 1020.25 1020.84 1021.35 1021.80 1022.26 1022.78 1023.10 1023.39 1023.59 1023.88 1024.26 1024.80 1024.99 1025.10 1025.16 1024.97 1024.92 1024.94 1024.61 1024.23 1023.89 1023.73 1023.25 1022.88 1022.33 1021.74 1021.00 1019.89 1019.23 1017.93 1016.74 1015.02 1013.73 1013.32 1013.04 1012.20 1011.27 1010.43 1009.73
1016.77 1018.04 1019.04 1019.60 1020.03 1020.49 1021.15 1021.81 1022.30 1022.74 1023.00 1023.14 1023.44 1023.72 1024.28 1024.78 1025.01 1025.26 1025.21 1025.08 1025.11 1025.16 1024.87 1024.65 1024.25 1024.02 1023.35 1022.92 1022.48 1021.97 1021.33 1020.40 1019.97 1019.30 1017.76 1015.19 1013.70 1013.28 1012.87 1012.36 1011.53 1010.70 1009.49
1015.73 1017.15 1018.30 1019.01 1019.75 1020.35 1021.02 1021.66 1022.25 1022.69 1023.05 1023.38 1023.74 1024.18 1024.35 1024.65 1024.88 1025.15 1025.12 1025.39 1025.41 1025.32 1025.09 1024.81 1024.32 1023.89 1023.45 1023.00 1022.71 1022.34 1021.85 1021.02 1020.24 1020.10 1019.52 1017.84 1016.15 1015.18 1012.45 1011.98 1011.89 1011.25 1010.31
1015.11 1016.20 1017.38 1018.35 1019.25 1020.07 1020.95 1021.63 1022.25 1022.89 1023.34 1023.55 1023.54 1023.50 1023.63 1024.09 1024.94 1025.17 1025.35 1025.32 1025.24 1025.22 1025.11 1024.87 1024.42 1023.77 1023.41 1023.31 1023.08 1022.66 1022.00 1021.48 1020.71 1020.38 1019.61 1019.56 1018.76 1016.98 1014.32 1012.35 1012.32 1011.97 1010.95
1013.35 1014.64 1016.09 1017.41 1018.63 1019.74 1020.72 1021.67 1022.49 1023.08 1023.47 1023.53 1023.58 1023.70 1024.10 1024.53 1024.83 1024.96 1024.99 1024.86 1025.08 1025.19 1025.13 1024.74 1024.17 1023.76 1023.63 1023.76 1023.28 1022.53 1022.10 1021.91 1021.46 1020.79 1019.96 1019.25 1018.47 1017.58 1016.49 1014.13 1012.99 1012.88 1012.08
1012.24 1013.83 1015.45 1016.85 1018.13 1019.51 1020.65 1021.67 1022.41 1023.06 1023.44 1023.66 1023.80 1024.04 1024.21 1024.31 1024.22 1024.52 1024.46 1024.95 1025.25 1025.26 1024.92 1024.65 1024.22 1024.07 1023.89 1023.96 1023.38 1022.77 1022.45 1022.05 1021.63 1021.14 1020.40 1019.67 1018.92 1017.84 1016.86 1015.60 1014.58 1013.76 1012.71
1011.35 1012.94 1014.52 1016.18 1017.73 1019.04 1020.34 1021.44 1022.19 1022.91 1023.57 1023.83 1024.16 1024.33 1024.11 1024.06 1024.24 1024.63 1024.94 1025.28 1025.43 1024.98 1024.95 1024.89 1024.66 1024.39 1024.16 1023.99 1023.49 1023.11 1022.55 1022.01 1021.73 1021.38 1020.69 1019.90 1019.06 1018.20 1017.20 1016.03 1014.96 1013.94 1012.98
1010.47 1011.83 1013.52 1015.14 1016.60 1018.32 1019.74 1020.88 1021.83 1022.70 1023.44 1024.04 1024.29 1024.22 1023.93 1024.20 1024.64 1025.01 1025.27 1025.64 1025.45 1025.19 1025.43 1025.29 1025.02 1024.83 1024.51 1023.89 1023.55 1023.00 1022.66 1022.18 1021.87 1021.29 1020.59 1019.83 1019.01 1018.23 1017.43 1016.59 1015.49 1014.17 1013.32
1009.98 1011.47 1013.12 1014.64 1016.17 1017.76 1019.30 1020.39 1021.54 1022.45 1023.29 1023.91 1024.03 1023.98 1024.26 1024.45 1024.78 1025.25 1025.67 1025.77 1025.72 1025.75 1025.91 1025.71 1025.36 1025.32 1024.72 1024.14 1023.92 1023.25 1022.93 1022.37 1021.95 1021.34 1020.68 1019.81 1019.04 1018.19 1017.38 1016.76 1016.03 1015.17 1014.01
1010.18 1011.72 1013.12 1014.66 1016.09 1017.67 1019.23 1020.41 1021.29 1022.07 1023.09 1023.54 1023.68 1024.00 1024.50 1024.61 1025.13 1025.73 1025.88 1025.86 1026.02 1026.21 1026.05 1025.95 1025.90 1025.61 1025.04 1024.55 1024.26 1023.49 1023.32 1022.74 1022.18 1021.67 1020.89 1019.98 1019.21 1018.25 1017.44 1016.79 1016.02 1015.27 1014.60
1010.47 1011.77 1013.27 1014.86 1016.17 1017.79 1019.22 1020.38 1021.23 1022.07 1022.82 1023.29 1023.66 1024.33 1024.63 1024.95 1025.53 1025.83 1026.03 1026.13 1026.35 1026.41 1026.28 1026.04 1026.14 1025.90 1025.30 1025.05 1024.64 1024.03 1023.81 1023.27 1022.66 1022.11 1021.24 1020.39 1019.54 1018.72 1017.83 1016.98 1016.31 1015.47 1014.68
1010.71 1012.11 1013.69 1014.67 1016.12 1017.72 1018.95 1020.08 1021.13 1021.80 1022.40 1022.91 1023.90 1024.39 1024.84 1025.40 1025.83 1026.11 1026.23 1026.26 1026.48 1026.43 1026.50 1026.40 1026.14 1026.00 1025.54 1025.35 1025.02 1024.58 1024.30 1023.84 1023.18 1022.66 1021.83 1021.05 1020.05 1019.15 1018.51 1017.61 1016.94 1016.20 1015.34
1011.42 1012.71 1014.01 1015.14 1016.25 1017.58 1018.83 1019.97 1020.99 1021.74 1022.29 1023.02 1023.84 1024.52 1025.05 1025.48 1026.02 1026.32 1026.33 1026.39 1026.59 1026.59 1026.39 1026.57 1026.40 1026.18 1025.71 1025.62 1025.44 1025.23 1024.83 1024.29 1023.76 1023.39 1022.74 1022.01 1021.00 1019.83 1019.35 1018.65 1017.81 1017.16 1016.40
1011.58 1012.74 1013.83 1014.97 1016.39 1017.45 1018.57 1019.86 1020.90 1021.65 1022.21 1023.14 1023.97 1024.49 1025.10 1025.63 1026.01 1026.24 1026.39 1026.46 1026.44 1026.46 1026.32 1026.54 1026.56 1026.37 1025.98 1026.05 1025.91 1025.59 1025.22 1024.76 1024.31 1024.06 1023.56 1022.93 1022.20 1021.29 1020.45 1019.63 1019.03 1018.40 1017.73
1011.09 1012.03 1013.09 1014.49 1016.04 1017.38 1018.66 1019.76 1020.61 1021.53 1022.28 1023.22 1023.98 1024.58 1025.18 1025.77 1026.11 1026.17 1026.41 1026.40 1026.44 1026.74 1026.54 1026.50 1026.44 1026.22 1026.16 1026.42 1026.28 1025.97 1025.69 1025.19 1024.93 1024.53 1024.17 1023.78 1023.38 1022.79 1021.96 1021.03 1020.51 1019.85 1019.35
1010.32 1011.74 1013.07 1014.29 1015.35 1016.42 1017.78 1019.22 1020.51 1021.52 1022.34 1023.20 1023.98 1024.69 1025.11 1025.67 1026.17 1026.31 1026.45 1026.76 1026.80 1027.19 1027.22 1026.97 1026.78 1026.72 1026.66 1027.02 1026.73 1026.57 1026.27 1025.81 1025.58 1025.16 1024.86 1024.39 1024.16 1023.89 1023.54 1022.82 1022.12 1021.65 1021.00
1009.02 1010.63 1011.61 1012.79 1014.23 1015.60 1017.08 1018.37 1019.97 1021.23 1022.09 1023.05 1024.00 1024.68 1025.29 1025.80 1026.09 1026.28 1026.75 1027.20 1027.34 1027.44 1027.48 1027.32 1027.23 1027.31 1027.22 1027.30 1027.18 1027.20 1027.06 1026.63 1026.49 1026.12 1025.75 1025.15 1025.04 1024.61 1024.26 1024.21 1023.84 1023.05 1022.88
1008.13 1009.47 1010.81 1012.43 1013.83 1015.35 1016.87 1018.26 1019.71 1020.80 1021.77 1022.73 1023.59 1024.62 1025.35 1025.81 1026.17 1026.59 1027.11 1027.45 1027.57 1027.55 1027.57 1027.57 1027.59 1027.61 1027.59 1027.61 1027.60 1027.54 1027.52 1027.29 1027.00 1026.82 1026.71 1026.18 1026.03 1025.87 1025.69 1025.20 1025.03 1024.85 1024.41
1007.78 1008.91 1010.37 1011.90 1013.57 1015.04 1016.44 1017.88 1019.27 1020.31 1021.35 1022.14 1023.01 1023.88 1024.93 1025.61 1026.22 1026.72 1027.13 1027.43 1027.52 1027.64 1027.74 1027.79 1027.86 1027.86 1027.81 1027.84 1027.87 1027.70 1027.64 1027.64 1027.47 1027.19 1027.19 1026.98 1026.76 1026.75 1026.60 1026.28 1026.02 1025.97 1026.13
1008.17 1009.23 1010.68 1012.09 1013.64 1014.97 1016.24 1017.39 1018.55 1019.81 1020.61 1021.30 1022.09 1023.14 1024.17 1024.98 1025.78 1026.37 1026.87 1027.14 1027.30 1027.50 1027.70 1027.90 1028.06 1028.01 1027.99 1028.01 1028.09 1027.94 1027.82 1027.99 1027.83 1027.77 1027.64 1027.62 1027.55 1027.43 1027.38 1027.15 1027.06 1026.96 1027.30
1008.94 1010.09 1011.27 1012.30 1013.66 1014.89 1015.93 1017.30 1018.45 1019.31 1020.11 1020.89 1021.77 1022.78 1023.68 1024.47 1025.32 1026.00 1026.48 1026.85 1027.08 1027.36 1027.71 1027.94 1028.24 1028.17 1028.04 1027.93 1028.26 1028.38 1028.27 1028.36 1028.36 1028.27 1028.23 1028.23 1028.26 1028.22 1028.07 1027.94 1027.98 1028.12 1028.14
1009.72 1010.66 1011.59 1012.91 1014.16 1015.05 1015.88 1017.13 1018.17 1019.22 1020.10 1020.83 1021.66 1022.55 1023.48 1024.21 1024.91 1025.60 1026.17 1026.54 1026.85 1027.21 1027.52 1027.77 1028.09 1028.25 1028.21 1027.99 1028.20 1028.50 1028.71 1028.84 1028.78 1028.96 1029.11 1029.16 1029.07 1028.89 1028.89 1028.78 1028.90 1028.80 1028.45
1009.80 1010.93 1011.86 1013.20 1014.46 1015.26 1015.97 1016.97 1018.03 1019.01 1019.98 1020.81 1021.53 1022.41 1023.24 1023.83 1024.57 1025.22 1025.82 1026.22 1026.63 1026.83 1027.24 1027.56 1027.92 1028.21 1028.40 1028.24 1028.55 1028.82 1029.19 1029.37 1029.30 1029.53 1029.95 1030.13 1030.17 1030.12 1029.72 1029.75 1029.62 1029.29 1028.95
1010.30 1011.25 1012.28 1013.43 1014.58 1015.52 1016.36 1017.06 1017.97 1018.80 1019.65 1020.59 1021.36 1022.21 1022.84 1023.46 1024.15 1024.73 1025.34 1025.66 1026.10 1026.48 1026.79 1027.27 1027.74 1028.14 1028.45 1028.74 1028.94 1029.27 1029.72 1030.14 1030.26 1030.57 1030.76 1030.69 1030.80 1030.94 1030.70 1030.30 1030.13 1030.10 1030.12
1010.34 1011.15 1012.03 1012.98 1014.30 1015.40 1016.23 1017.15 1017.76 1018.56 1019.31 1020.29 1021.10 1021.78 1022.38 1023.02 1023.70 1024.19 1024.70 1025.13 1025.62 1025.93 1026.36 1026.96 1027.43 1027.83 1028.22 1028.81 1029.22 1029.44 1029.85 1030.17 1030.59 1030.72 1030.73 1030.69 1030.64 1030.57 1030.61 1030.73 1030.85 1030.81 1030.73
1010.19 1011.00 1011.85 1012.72 1013.98 1015.02 1015.91 1016.62 1017.31 1018.03 1018.76 1019.70 1020.60 1021.25 1021.86 1022.62 1023.23 1023.99 1024.78 1025.41 1025.69 1026.07 1026.61 1027.09 1027.35 1027.90 1028.12 1028.69 1029.12 1029.46 1029.87 1030.42 1030.70 1030.75 1030.91 1031.17 1031.19 1031.16 1031.21 1031.29 1031.41 1031.60 1031.64
Wind_Speed
15 15 14 13 13 12 12 11 10 9 7 5 4 3 3 3 4 5 7 8 8 8 8 6 7 8 7 8 10 9 12 10 11 12 13 9 10 5 9 12 9 12 13
18 17 16 15 15 14 12 10 9 8 6 4 3 2 4 4 4 4 6 8 8 8 7 7 7 7 7 9 10 11 9 8 10 8 10 9 6 8 17 7 9 14 8
22 20 19 17 15 15 13 11 9 7 5 6 5 5 5 4 2 4 4 6 6 7 8 8 7 7 7 7 9 10 11 8 9 9 4 6 5 15 7 12 7 12 12
22 21 21 20 17 15 12 11 10 8 6 6 5 5 3 3 2 2 2 2 6 6 8 8 7 8 7 9 8 8 9 9 9 8 3 8 10 4 10 8 10 12 12
24 25 24 21 17 14 13 11 10 8 7 6 6 5 6 4 3 2 3 5 5 6 7 8 9 9 7 8 9 9 9 7 7 8 9 10 8 10 7 13 10 9 10
24 22 21 19 17 14 13 12 11 9 7 6 7 6 7 6 4 4 5 4 4 4 9 9 9 8 8 8 8 9 10 9 8 8 9 8 6 6 7 6 11 11 7
22 22 22 20 18 18 16 12 12 10 8 7 6 7 7 7 7 5 4 5 4 5 9 10 9 7 8 8 8 9 8 9 9 10 9 9 9 8 7 9 8 7 7
20 23 22 21 19 19 17 15 13 12 9 7 7 6 7 5 4 5 4 3 4 6 8 8 8 8 8 8 8 6 7 9 9 12 11 9 8 8 7 5 8 6 6
21 22 21 20 19 19 18 16 14 12 10 9 7 7 6 6 6 5 3 3 6 6 8 8 8 8 8 9 8 6 9 9 10 11 12 10 8 8 7 5 5 5 3
19 19 19 19 17 17 16 15 14 13 11 9 7 6 6 7 6 4 5 6 6 6 7 8 8 7 8 9 8 7 10 10 10 10 14 13 10 9 7 6 5 5 7
17 17 16 16 16 16 16 14 13 13 11 9 7 7 7 7 5 5 5 5 5 6 7 8 7 7 8 8 8 9 10 11 12 14 15 17 14 9 9 7 6 5 5
16 17 13 16 15 14 13 12 13 13 11 10 8 8 8 6 5 5 5 5 5 5 6 7 8 8 8 8 9 9 9 11 13 14 16 17 12 14 12 9 10 8 6
14 15 15 14 13 15 12 12 11 10 10 10 9 9 8 6 5 5 5 5 5 4 6 7 8 8 9 9 8 8 9 10 12 13 14 16 18 17 12 12 10 9 8
13 14 15 15 14 13 13 12 11 10 10 10 9 9 8 7 6 5 5 5 5 5 6 6 7 8 10 9 8 8 9 9 11 11 13 15 17 18 16 14 13 11 10
14 15 16 15 15 15 14 13 12 11 11 10 9 9 8 8 7 7 6 6 6 5 6 6 6 7 10 9 9 9 9 10 10 11 11 14 17 23 23 13 15 14 11
14 14 14 15 17 17 16 14 13 12 11 10 9 9 9 8 7 7 7 7 8 7 7 8 8 8 7 13 16 11 10 12 11 11 12 12 15 16 23 25 29 24 14
15 17 19 18 16 17 17 17 15 14 12 11 10 9 9 8 8 8 8 7 7 7 7 7 7 8 8 12 14 13 9 11 11 12 11 11 11 13 12 18 21 26 27
16 15 14 14 15 16 17 16 15 14 14 13 12 10 8 8 8 9 8 7 7 7 7 6 6 6 7 10 12 13 10 10 12 13 12 13 13 15 12 12 14 15 17
7 10 12 15 16 17 17 17 16 15 14 15 15 13 11 10 10 9 9 7 7 7 6 5 5 5 6 8 9 8 8 10 12 11 12 13 13 18 17 12 13 13 13
6 12 13 15 15 16 18 16 16 16 16 16 15 15 14 13 12 11 9 7 7 7 6 6 5 7 5 9 8 5 6 7 8 10 11 19 15 19 18 11 10 11 11
11 13 12 13 13 15 16 14 14 14 12 13 15 15 14 13 13 11 9 8 7 7 6 6 4 4 5 7 9 9 6 5 6 7 8 9 17 18 18 17 11 9 6
13 11 12 11 12 13 14 13 13 10 12 12 13 13 12 11 11 12 10 8 7 7 5 5 4 2 3 7 9 9 9 8 7 7 6 8 14 17 17 13 16 14 8
11 9 10 12 10 11 11 13 11 13 13 12 12 12 13 11 12 12 10 8 7 5 5 4 4 4 3 4 8 9 10 10 7 6 10 12 12 12 11 17 16 12 8
10 9 12 11 11 9 9 7 12 13 13 12 12 11 12 12 12 10 9 8 8 6 5 5 5 4 4 4 4 4 5 7 7 6 6 7 8 9 7 7 9 8 8
10 11 11 12 13 12 10 11 13 14 14 13 11 12 11 12 11 9 8 8 8 8 6 5 6 6 5 4 5 6 5 4 6 5 4 4 4 5 6 6 7 7 7
10 10 10 11 13 13 12 13 15 16 15 13 11 10 10 9 9 8 6 3 7 11 8 10 8 4 6 12 12 11 10 9 6 3 4 4 4 5 5 5 5 6 7
Wind_Direction
175 174 171 163 157 153 152 152 152 158 162 157 159 140 110 99 72 56 45 40 31 20 11 6 357 355 352 346 346 340 336 333 337 321 328 307 304 290 337 335 314 296 274
176 175 175 173 174 163 159 156 159 164 174 153 131 125 155 107 74 53 47 36 24 16 9 4 3 357 350 352 351 345 340 331 351 334 310 338 319 347 322 316 330 348 299
178 180 181 180 175 172 169 165 158 143 136 131 132 133 122 123 114 47 39 31 21 15 10 9 5 0 357 353 351 343 342 328 337 350 318 327 324 333 304 319 358 344 343
187 182 182 182 181 177 165 161 148 149 147 163 165 147 113 121 91 69 37 29 30 21 15 8 4 7 1 358 345 345 343 341 333 329 344 302 294 313 317 321 335 346 330
186 184 184 181 178 166 166 155 154 151 153 138 124 109 112 124 136 116 56 44 32 21 13 10 9 11 4 356 341 348 354 341 329 326 322 313 305 268 264 296 329 343 340
187 181 177 172 168 164 160 160 157 152 144 136 119 139 154 139 114 62 43 29 6 7 20 10 11 8 3 350 349 354 353 351 342 336 324 317 313 308 289 297 307 312 321
181 175 171 171 166 167 164 162 160 154 152 137 150 161 129 95 76 59 43 23 6 16 14 7 5 2 359 352 359 357 352 0 351 337 325 313 303 296 301 293 289 292 317
181 178 172 171 165 166 166 164 164 158 157 163 163 141 104 95 85 67 53 36 26 27 12 6 5 360 358 360 359 359 1 1 356 347 340 323 316 308 303 301 304 299 297
179 176 172 168 165 166 168 165 165 160 165 171 154 124 118 112 93 81 69 54 42 27 17 11 10 0 7 7 353 7 6 6 6 1 346 343 329 317 310 305 293 294 313
174 173 171 166 163 164 163 164 166 162 166 164 147 131 132 107 96 94 78 70 56 37 28 18 13 9 16 13 5 9 8 10 13 10 1 360 346 336 332 322 309 273 270
172 166 164 160 156 158 162 160 159 161 164 158 138 148 126 108 114 106 91 78 69 47 38 31 19 16 23 19 19 18 15 16 14 14 8 8 1 353 352 346 344 334 324
169 162 151 152 152 153 154 151 162 164 163 145 155 142 128 125 117 105 103 94 84 68 51 40 35 27 30 24 24 24 21 21 21 15 18 12 9 13 8 2 6 357 351
164 159 154 156 155 156 153 158 160 156 149 152 152 144 138 129 124 120 113 107 105 91 68 50 39 33 35 29 28 23 26 30 30 22 22 16 16 21 14 14 15 11 21
166 169 168 171 164 160 156 158 161 156 149 151 153 147 142 138 137 131 128 124 109 95 83 61 50 45 46 38 30 31 28 35 38 27 31 28 25 23 22 25 21 23 35
180 184 177 171 168 167 168 166 160 154 152 149 152 147 141 141 141 139 139 117 101 93 84 74 61 58 54 40 38 38 33 35 35 41 33 37 37 39 36 35 30 34 42
187 184 181 176 179 176 169 165 164 160 156 154 151 148 147 146 148 139 125 114 107 96 87 79 71 58 60 54 53 47 47 40 37 36 36 39 36 42 46 41 51 48 43
182 184 189 187 180 175 167 168 163 158 162 154 152 152 152 149 144 133 122 120 116 112 99 84 75 70 67 66 62 57 52 54 44 42 36 41 37 35 45 52 47 49 52
190 190 178 174 171 167 168 156 158 161 163 162 159 156 149 141 134 127 129 129 127 115 106 90 78 79 77 77 74 69 61 57 55 51 45 47 43 43 39 53 55 49 44
154 159 158 158 163 165 160 157 161 162 165 167 167 162 152 144 143 140 141 137 130 120 106 90 82 79 81 82 80 75 73 64 57 50 58 49 50 45 46 49 52 57 49
135 140 143 147 150 160 161 158 162 169 176 172 167 162 160 158 154 151 150 144 136 125 120 105 87 76 74 88 83 80 83 73 72 63 58 54 56 54 50 51 50 56 39
127 130 138 147 151 153 155 154 159 176 165 161 160 163 167 163 160 155 152 152 145 132 129 121 103 82 67 117 93 85 81 77 74 64 58 56 59 57 56 58 56 52 41
137 140 134 139 147 154 154 156 170 153 151 152 154 158 163 164 162 160 158 159 146 144 146 146 148 113 64 124 115 99 88 88 84 74 62 58 50 60 58 56 52 50 51
139 135 134 135 146 158 162 161 156 152 149 151 154 158 162 167 168 167 165 165 167 158 155 155 154 141 113 103 99 101 98 89 87 80 77 70 61 58 50 48 43 40 39
144 142 136 141 151 161 164 154 151 150 150 153 156 159 164 165 170 175 177 181 182 181 173 167 165 152 147 135 126 114 105 95 89 88 69 73 76 66 62 46 44 43 39
148 155 160 159 162 164 151 150 151 154 156 156 160 166 171 174 172 182 185 193 198 195 183 180 174 169 167 155 148 143 133 122 110 112 81 62 52 51 47 51 41 38 33
152 156 157 153 159 165 162 160 162 163 159 160 166 169 170 171 172 172 164 135 182 179 176 164 167 161 144 152 146 137 128 126 129 93 89 72 58 53 46 42 44 39 33